Flag for Thailand Weather past 2 weeks in Phuket, Thailand

Now
84 °F

Partly cloudy.


Feels Like: 92 °F
Forecast: 78 / 84 °F
Wind: 20 mph from West

Location: Phuket Airport

Current Time: Jul 5, 2015 at 8:45:02 PM

Latest Report: Jul 5, 2015 at 7:30 PM


Visibility: 6 mi

Pressure: 29.77 "Hg

Humidity: 74%

Dew point: 75 °F

Location of PhuketLocation

Historic Weather in Phuket — Graph

°F

Phuket temperature yesterday

Maximum temperature yesterday: 90 °F (at 3:00 PM)
Minimum temperature yesterday: 79 °F (at 9:00 AM)
Average temperature yesterday: 86 °F

Past Weeks' High & Low Weather Summary

 TemperatureHumidityPressure
High91 °F (Jun 27, 12:30 PM)100% (Jun 23, 12:00 AM)30.01 "Hg (Jun 23, 12:00 AM)
Low36 °F (Jun 23, 12:00 AM)55% (Jun 26, 2:00 PM)29.74 "Hg (Jun 20, 7:00 PM)
Average84 °F75%29.86 "Hg
* Reported Jun 20 7:00 PM — Jul 5 7:00 PM, Phuket, Weather by CustomWeather, © 2015

Note: Actual official high and low records may vary slightly from our data, if they occured in-between our weather recording intervals... More about our weather records

Advertising

Phuket weather history for previous 24 hours

 ConditionsComfort  
Time TempWeatherWind HumidityBarometerVisibility
7:00 PM
Sun, Jul 5
84 °FPartly cloudy.20 mph74%29.77 "Hg6 mi
6:30 PM84 °FBroken clouds.17 mph74%29.74 "Hg6 mi
6:00 PM84 °FBroken clouds.17 mph74%29.74 "Hg6 mi
5:30 PM82 °FBroken clouds.18 mph79%29.74 "Hg6 mi
5:00 PM81 °FBroken clouds.17 mph89%29.74 "Hg5 mi
4:30 PM86 °FBroken clouds.22 mph70%29.74 "Hg6 mi
4:00 PM86 °FBroken clouds.25 mph70%29.74 "Hg6 mi
3:30 PM86 °FBroken clouds.24 mph70%29.77 "Hg6 mi
3:00 PM88 °FBroken clouds.17 mph66%29.77 "Hg6 mi
2:30 PM86 °FBroken clouds.24 mph70%29.77 "Hg6 mi
2:00 PM84 °FScattered clouds.22 mph79%29.77 "Hg6 mi
1:30 PM88 °FBroken clouds.23 mph66%29.80 "Hg6 mi
1:00 PM86 °FBroken clouds.23 mph70%29.80 "Hg6 mi
12:30 PM88 °FBroken clouds.22 mph66%29.83 "HgN/A
12:00 PM88 °FBroken clouds.20 mph62%29.83 "HgN/A
11:30 AM86 °FBroken clouds.17 mph70%29.83 "HgN/A
10:30 AM88 °FBroken clouds.22 mph66%29.83 "HgN/A
10:00 AM86 °FBroken clouds.17 mph70%29.83 "HgN/A
9:30 AM86 °FBroken clouds.21 mph70%29.83 "HgN/A
9:00 AM86 °FBroken clouds.23 mph66%29.83 "HgN/A
8:30 AM84 °FBroken clouds.18 mph74%29.83 "HgN/A
8:00 AM84 °FBroken clouds.15 mph74%29.83 "HgN/A
7:30 AM82 °FBroken clouds.14 mph79%29.83 "Hg6 mi
7:00 AM81 °FBroken clouds.9 mph79%29.83 "Hg5 mi
6:30 AM81 °FBroken clouds.6 mph84%29.83 "Hg5 mi
6:00 AM84 °FPartly cloudy.15 mph74%29.80 "Hg5 mi
5:30 AM84 °FPartly cloudy.15 mph74%29.80 "Hg5 mi
5:00 AM84 °FPassing clouds.12 mph74%29.80 "Hg5 mi
4:30 AM82 °FPassing clouds.10 mph79%29.80 "Hg5 mi
4:00 AM82 °FPassing clouds.13 mph79%29.80 "Hg5 mi
3:30 AM82 °FPassing clouds.14 mph74%29.80 "Hg5 mi
3:00 AM82 °FPassing clouds.17 mph74%29.80 "Hg5 mi
2:30 AM82 °FPassing clouds.N/A79%29.80 "Hg5 mi
2:00 AM82 °FPassing clouds.8 mph74%29.80 "Hg5 mi
1:30 AM82 °FPassing clouds.15 mph74%29.83 "Hg5 mi
1:00 AM84 °FPassing clouds.15 mph74%29.83 "Hg5 mi
12:30 AM82 °FPassing clouds.6 mph84%29.83 "Hg6 mi
12:00 AM82 °FRain. Partly cloudy.18 mph74%29.86 "Hg3 mi
11:30 PM
Sat, Jul 4
86 °FPassing clouds.18 mph66%29.86 "Hg5 mi
11:00 PM86 °FPassing clouds.17 mph70%29.86 "Hg5 mi
10:30 PM86 °FPassing clouds.16 mph70%29.86 "Hg5 mi
10:00 PM84 °FPartly cloudy.13 mph74%29.83 "Hg5 mi
9:30 PM86 °FPartly cloudy.15 mph66%29.83 "Hg5 mi
9:00 PM86 °FPartly cloudy.17 mph70%29.83 "Hg5 mi
8:30 PM86 °FPartly cloudy.14 mph70%29.83 "Hg5 mi
8:00 PM84 °FPartly cloudy.18 mph74%29.80 "Hg5 mi
Weather by CustomWeather, © 2015

See weather overviewHow to use our weather pages